This is the latest recevied weather packets stored in our database for station/object W3TMB. If no packets are shown the sender has not sent any weather packets the latest 10 day(s).
| Time | Temp. | Humidity | Pressure | Rain* | Wind** | Luminosity | Snow |
|---|---|---|---|---|---|---|---|
| 1777922435 | 25° C | 34% | 1004.4 hPa | 0 mm | - | 592 W/m² | - |
| 1777922133 | 25° C | 35% | 1004.8 hPa | 0 mm | - | 651 W/m² | - |
| 1777921829 | 25° C | 36% | 1004.7 hPa | 0 mm | - | 650 W/m² | - |
| 1777921526 | 25° C | 35% | 1004.8 hPa | 0 mm | - | 468 W/m² | - |
| 1777921221 | 26.11° C | 38% | 1004.9 hPa | 0 mm | - | 643 W/m² | - |
| 1777920919 | 25.56° C | 36% | 1004.9 hPa | 0 mm | - | 652 W/m² | - |
| 1777920615 | 24.44° C | 39% | 1005.2 hPa | 0 mm | - | 646 W/m² | - |
| 1777920310 | 24.44° C | 37% | 1005.1 hPa | 0 mm | - | 658 W/m² | - |
| 1777920006 | 24.44° C | 38% | 1005.1 hPa | 0 mm | - | 686 W/m² | - |
| 1777919703 | 24.44° C | 38% | 1005.4 hPa | 0 mm | - | 705 W/m² | - |
| 1777919401 | 24.44° C | 38% | 1005.5 hPa | 0 mm | - | 722 W/m² | - |
| 1777919098 | 23.89° C | 39% | 1005.3 hPa | 0 mm | - | 674 W/m² | - |
| 1777918795 | 23.89° C | 40% | 1005.6 hPa | 0 mm | - | 699 W/m² | - |
| 1777918492 | 23.33° C | 38% | 1005.5 hPa | 0 mm | - | 719 W/m² | - |
| 1777918190 | 23.89° C | 40% | 1005.6 hPa | 0 mm | - | 739 W/m² | - |
| 1777917889 | 23.33° C | 42% | 1005.8 hPa | 0 mm | - | 736 W/m² | - |
| 1777917587 | 23.33° C | 40% | 1006 hPa | 0 mm | - | 748 W/m² | - |
| 1777917284 | 23.33° C | 40% | 1005.9 hPa | 0 mm | - | 766 W/m² | - |
| 1777916982 | 23.33° C | 41% | 1006.1 hPa | 0 mm | - | 728 W/m² | - |
| 1777916679 | 23.89° C | 42% | 1006.1 hPa | 0 mm | - | 744 W/m² | - |
| 1777916376 | 22.78° C | 41% | 1006.4 hPa | 0 mm | - | 749 W/m² | - |
| 1777916072 | 22.22° C | 41% | 1006.2 hPa | 0 mm | - | 722 W/m² | - |
| 1777915770 | 22.22° C | 42% | 1006.5 hPa | 0 mm | - | 665 W/m² | - |
| 1777915466 | 22.78° C | 39% | 1006.5 hPa | 0 mm | - | 616 W/m² | - |
| 1777915163 | 22.22° C | 42% | 1006.4 hPa | 0 mm | - | 621 W/m² | - |
* Rain latest hour (hover to see other rain measurements)
** Current wind speed in m/s (hover to see current wind gust speed)